Flag Weather past 2 weeks in Jaipur, Rajasthan, India

Now
82 °F

Haze.


Feels Like: 80 °F
Forecast: 54 / 82 °F
Wind: 7 mph from North

Location: Jaipur / Sanganer

Current Time: Nov 26, 2014 at 3:53:22 PM

Latest Report: Nov 26, 2014 at 3:00 PM


Visibility: 2 mi

Pressure: 29.86 "Hg

Humidity: 12%

Dew point: 25 °F

Location of JaipurLocation

Historic Weather in Jaipur — Graph

°F

Jaipur temperature yesterday

Maximum temperature yesterday: 81 °F (at 2:30 PM)
Minimum temperature yesterday: 55 °F (at 7:00 AM)
Average temperature yesterday: 68 °F

Past Weeks' High & Low Weather Summary

 TemperatureHumidityPressure
High86 °F (Nov 11, 2:00 PM)63% (Nov 19, 4:00 AM)30.15 "Hg (Nov 19, 4:00 AM)
Low54 °F (Nov 16, 5:30 AM)8% (Nov 15, 4:00 PM)29.89 "Hg (Nov 22, 3:00 PM)
Average70 °F34%30.03 "Hg
* Reported Nov 11 2:00 PM — Nov 26 2:00 PM, Jaipur, Weather by CustomWeather, © 2014

Note: Actual official high and low records may vary slightly from our data, if they occured in-between our weather recording intervals... More about our weather records

Advertising

Jaipur weather history for previous 24 hours

 ConditionsComfort  
Time TempWeatherWind HumidityBarometerVisibility
2:00 PM
Nov 26
82 °FHaze.6 mph12%29.89 "Hg2 mi
1:00 PM82 °FHaze.6 mph13%29.92 "Hg2 mi
11:00 AM77 °FClear.6 mph18%29.98 "Hg1 mi
10:00 AM75 °FClear.5 mph25%30.01 "Hg1 mi
9:00 AM70 °FClear.No wind31%30.01 "Hg1 mi
8:00 AM59 °FClear.No wind51%29.98 "Hg1 mi
7:00 AM57 °FClear.No wind51%29.95 "Hg1 mi
6:00 AM57 °FClear.No wind55%29.95 "Hg1 mi
5:00 AM57 °FClear.No wind51%29.95 "Hg1 mi
4:00 AM57 °FClear.No wind48%29.92 "Hg1 mi
3:00 AM57 °FClear.No wind51%29.95 "Hg1 mi
2:00 AM59 °FClear.No wind48%29.95 "Hg1 mi
1:00 AM57 °FClear.No wind55%29.98 "Hg1 mi
12:00 AM61 °FClear.No wind45%29.98 "Hg1 mi
11:00 PM
Nov 25
63 °FClear.No wind37%30.01 "Hg1 mi
10:00 PM63 °FClear.3 mph39%30.01 "Hg1 mi
9:00 PM61 °FClear.3 mph52%30.01 "Hg1 mi
8:00 PM68 °FClear.2 mph33%30.01 "Hg1 mi
6:30 PM72 °FClear.3 mph29%29.98 "Hg1 mi
5:30 PM77 °FHaze.3 mph21%29.98 "Hg2 mi
5:00 PM79 °FHaze.3 mph20%29.98 "Hg2 mi
3:00 PM81 °FHaze.6 mph20%29.98 "Hg2 mi
Weather by CustomWeather, © 2014

See weather overviewHow to use our weather pages